DW0479 Weather Reports


time (UTC)temp
F
wind
direction
speed
knots
gust
knots
rain 1hr
in
rain 24hr
in
rain mn
in
humidity
%
barometer
mb
20260502215402 71 278 1.7 6.1 0.03 0.04 0.04 91 1011.1
20260502214334 71 282 1.7 5.2 0.02 0.03 0.03 89 1011.2
20260502213325 72 267 3.5 7.8 0.01 0.02 0.02 88 1011.2
20260502212323 72 276 2.6 7.0 0.02 0.02 0.02 87 1010.8
20260502211326 73 280 2.6 7.0 0.01 0.01 0.01 87 1010.6
20260502210310 72 285 2.6 6.1 0.01 0.01 0.01 87 1010.7
20260502205305 72 271 1.7 5.2 0.01 0.01 0.01 88 1010.9
20260502204300 72 310 2.6 7.8 0.01 0.01 0.01 87 1010.8
20260502203259 73 322 5.2 16.5 0.01 0.01 0.01 82 1011.2
20260502202257 78 350 9.6 26.1 0.00 0.00 0.00 67 1011.6
20260502201257 84 291 5.2 12.2 0.00 0.00 0.00 69 1010.8
20260502200255 85 240 5.2 12.2 0.00 0.00 0.00 68 1010.4
20260502195256 85 352 7.0 15.6 0.00 0.00 0.00 68 1010.6
20260502194731 86 260 7.0 14.8 0.00 0.00 0.00 66 1010.6
20260502193249 86 231 7.0 14.8 0.00 0.00 0.00 67 1010.4
20260502192247 86 271 7.0 15.6 0.00 0.00 0.00 66 1010.4
20260502192213 86 265 6.1 14.8 0.00 0.00 0.00 65 1010.6
20260502190248 86 239 5.2 12.2 0.00 0.00 0.00 65 1010.6
20260502185246 87 239 7.0 15.6 0.00 0.00 0.00 63 1010.5
20260502184242 87 235 7.0 13.9 0.00 0.00 0.00 62 1010.7
20260502183242 87 231 8.7 15.6 0.00 0.00 0.00 61 1010.8
20260502182238 88 259 7.8 15.6 0.00 0.00 0.00 60 1010.7
20260502181237 88 225 7.8 20.0 0.00 0.00 0.00 60 1010.7
20260502180720 88 236 9.6 18.2 0.00 0.00 0.00 59 1010.6
20260502170229 89 249 7.0 13.9 0.00 0.00 0.00 62 1010.8
20260502164227 89 234 7.8 16.5 0.00 0.00 0.00 59 1011.0
20260502163227 89 246 6.1 17.4 0.00 0.00 0.00 61 1011.1
20260502162708 88 262 6.1 14.8 0.00 0.00 0.00 64 1011.1
20260502162129 87 234 7.0 14.8 0.00 0.00 0.00 66 1011.3
20260502160223 86 235 6.1 14.8 0.00 0.00 0.00 66 1011.4
20260502151749 84 235 5.2 13.0 0.00 0.00 0.00 69 1011.6
20260502150748 84 225 6.1 11.3 0.00 0.00 0.00 69 1011.6
20260502130740 78 216 3.5 8.7 0.00 0.00 0.00 81 1010.8
20260502123741 75 170 3.5 7.8 0.00 0.00 0.00 89 1010.7
20260502122731 74 177 4.3 8.7 0.00 0.00 0.00 93 1010.5
20260502121734 73 188 3.5 8.7 0.00 0.00 0.00 95 1010.5
20260502120730 72 189 1.7 5.2 0.00 0.00 0.00 96 1010.6
20260502115727 72 171 1.7 5.2 0.00 0.00 0.00 96 1010.6
20260502114724 71 196 0.9 2.6 0.00 0.00 0.00 96 1010.6
20260502113709 71 196 0.0 1.7 0.00 0.00 0.00 96 1010.5
20260502112700 70 196 0.9 3.5 0.00 0.00 0.00 96 1010.4
20260502111659 70 193 1.7 3.5 0.00 0.00 0.00 96 1010.4
20260502110658 69 193 0.9 2.6 0.00 0.00 0.00 95 1010.2
20260502105658 69 193 0.0 1.7 0.00 0.00 0.00 95 1010.2
20260502104644 69 193 0.0 1.7 0.00 0.00 0.00 95 1010.1
20260502104121 69 193 0.0 1.7 0.00 0.00 0.00 95 1009.8
20260502102643 69 193 1.7 4.3 0.00 0.00 0.00 95 1009.9
20260502101642 69 246 1.7 3.5 0.00 0.00 0.00 95 1010.0
20260502100642 69 252 0.9 2.6 0.00 0.00 0.00 95 1010.1
20260502090631 69 258 0.0 1.7 0.00 0.00 0.00 94 1010.6
20260502070617 70 291 0.9 2.6 0.00 0.00 0.00 92 1010.8
20260502070052 70 291 0.9 1.7 0.00 0.00 0.00 92 1010.8
20260502065102 70 292 0.0 1.7 0.00 0.00 0.00 91 1011.0
20260502063616 70 291 0.0 1.7 0.00 0.00 0.00 90 1011.0
20260502062616 70 292 0.9 2.6 0.00 0.00 0.00 90 1011.0
20260502062533 70 291 1.7 2.6 0.00 0.00 0.00 89 1011.2
20260502060615 70 292 0.9 2.6 0.00 0.00 0.00 88 1011.1
20260502055618 70 308 0.9 1.7 0.00 0.00 0.00 87 1011.2
20260502054616 70 308 0.9 1.7 0.00 0.00 0.00 86 1011.2
20260502054023 70 310 1.7 2.6 0.00 0.00 0.00 86 1011.5
20260502053650 70 308 1.7 2.6 0.00 0.00 0.00 86 1011.4
20260502051610 71 310 0.0 0.9 0.00 0.00 0.00 85 1011.6
20260502051103 70 310 0.0 0.9 0.00 0.00 0.00 85 1011.5
20260502045609 71 310 0.0 0.0 0.00 0.00 0.00 84 1011.5
20260502044611 71 310 0.0 0.0 0.00 0.00 0.00 83 1011.6
20260502043613 72 310 0.0 0.0 0.00 0.00 0.00 83 1011.6
20260502042607 72 310 0.0 0.0 0.00 0.00 0.00 82 1011.7
20260502041615 72 310 0.0 0.0 0.00 0.00 0.00 81 1011.7
20260502041047 73 310 0.0 0.0 0.00 0.00 0.00 80 1011.7
20260502035607 73 310 0.0 0.9 0.00 0.00 0.00 79 1011.8
20260502034608 74 310 0.0 0.9 0.00 0.00 0.00 78 1011.8
20260502033607 74 310 0.0 0.0 0.00 0.00 0.00 78 1011.7
20260502032606 74 310 0.0 0.0 0.00 0.00 0.00 77 1011.8
20260502031602 75 310 0.0 1.7 0.00 0.00 0.00 76 1011.7
20260502030603 76 310 0.0 1.7 0.00 0.00 0.00 74 1011.7
20260502030040 77 310 0.0 2.6 0.00 0.00 0.00 73 1011.7
20260502024553 77 310 1.7 3.5 0.00 0.00 0.00 71 1011.7
20260502023547 78 314 1.7 3.5 0.00 0.00 0.00 70 1011.7
20260502023455 78 308 1.7 4.3 0.00 0.00 0.00 69 1011.4
20260502021538 79 321 2.6 6.1 0.00 0.00 0.00 66 1011.5
20260502021009 80 289 1.7 5.2 0.00 0.00 0.00 63 1011.5
20260502015530 80 267 2.6 7.0 0.00 0.00 0.00 62 1011.3
20260502014522 80 279 2.6 6.1 0.00 0.00 0.00 61 1011.0
20260502013519 81 282 1.7 6.1 0.00 0.00 0.00 60 1010.8
20260502012520 81 296 2.6 6.1 0.00 0.00 0.00 59 1010.6
20260502011519 82 297 2.6 8.7 0.00 0.00 0.00 58 1010.7
20260502010520 83 279 4.3 8.7 0.00 0.00 0.00 56 1010.6
20260502005956 83 277 2.6 7.8 0.00 0.00 0.00 56 1010.5
20260502004517 83 285 2.6 8.7 0.00 0.00 0.00 55 1010.3
20260502003519 83 271 1.7 6.1 0.00 0.00 0.00 55 1010.2
20260502002956 83 270 1.7 4.3 0.00 0.00 0.00 54 1010.0
20260502001512 84 259 1.7 5.2 0.00 0.00 0.00 52 1009.8
20260502000511 85 263 2.6 3.5 0.00 0.00 0.00 51 1009.7
20260501235513 86 267 2.6 6.1 0.00 0.00 0.00 50 1009.6
20260501234504 87 241 2.6 7.0 0.00 0.00 0.00 50 1009.5
20260501233951 87 258 2.6 6.1 0.00 0.00 0.00 49 1009.4
20260501232456 88 236 3.5 7.8 0.00 0.00 0.00 49 1009.3
20260501231938 89 286 2.6 7.0 0.00 0.00 0.00 47 1009.3
20260501230930 89 242 4.3 7.8 0.00 0.00 0.00 47 1009.0
20260501225451 89 242 4.3 7.8 0.00 0.00 0.00 47 1009.0
20260501224451 90 266 3.5 8.7 0.00 0.00 0.00 46 1009.0
20260501223450 90 248 4.3 9.6 0.00 0.00 0.00 47 1008.9
20260501222449 90 267 4.3 9.6 0.00 0.00 0.00 46 1008.8
20260501221447 91 277 4.3 10.4 0.00 0.00 0.00 45 1008.7
20260501220925 91 260 4.3 7.0 0.00 0.00 0.00 45 1008.6